Dassault Systemes SA Operating Margin 2006-2021 | DASTY

Current and historical operating margin for Dassault Systemes SA (DASTY) over the last 10 years. The current operating profit margin for Dassault Systemes SA as of March 31, 2021 is 20.50%.
Dassault Systemes SA Operating Margin Historical Data
Date TTM Revenue TTM Operating Income Operating Margin
2021-03-31 $5.25B $0.88B 16.71%
2020-12-31 $5.09B $0.77B 15.06%
2020-09-30 $4.95B $0.68B 13.79%
2020-06-30 $4.76B $0.75B 15.76%
2020-03-31 $4.66B $0.83B 17.86%
2019-12-31 $4.50B $0.91B 20.24%
2019-09-30 $4.39B $1.00B 22.72%
2019-06-30 $4.33B $0.99B 22.76%
2019-03-31 $4.25B $0.99B 23.39%
2018-12-31 $4.11B $0.91B 22.11%
2018-09-30 $3.98B $0.90B 22.57%
2018-06-30 $3.90B $0.88B 22.63%
2018-03-31 $3.79B $0.86B 22.59%
2017-12-31 $3.65B $0.82B 22.55%
2017-09-30 $3.53B $0.75B 21.21%
2017-06-30 $3.46B $0.74B 21.37%
2017-03-31 $3.43B $0.74B 21.47%
2016-12-31 $3.38B $0.74B 22.01%
2016-09-30 $3.25B $0.67B 20.73%
2016-06-30 $3.18B $0.66B 20.73%
2016-03-31 $3.12B $0.65B 20.87%
2015-12-31 $3.15B $0.70B 22.29%
2015-09-30 $3.11B $0.62B 19.95%
2015-06-30 $3.07B $0.56B 18.15%
2015-03-31 $3.03B $0.52B 17.18%
2014-12-31 $2.93B $0.45B 15.37%
2014-09-30 $2.92B $0.58B 19.75%
2014-06-30 $2.89B $0.65B 22.53%
2014-03-31 $2.83B $0.68B 23.97%
2013-12-31 $2.77B $0.69B 24.97%
2013-09-30 $2.77B $0.71B 25.52%
2013-06-30 $2.73B $0.69B 25.35%
2013-03-31 $2.65B $0.66B 24.72%
2012-12-31 $2.63B $0.67B 25.34%
2012-09-30 $2.55B $0.60B 23.61%
2012-06-30 $2.50B $0.58B 23.21%
2012-03-31 $2.51B $0.59B 23.52%
2011-12-31 $2.46B $0.58B 23.35%
2011-09-30 $2.41B $0.57B 23.74%
2011-06-30 $2.33B $0.53B 22.64%
2011-03-31 $2.21B $0.49B 22.22%
2010-12-31 $2.07B $0.42B 20.25%
2010-09-30 $1.94B $0.38B 19.66%
2010-06-30 $1.85B $0.38B 20.51%
2010-03-31 $1.79B $0.35B 19.65%
2009-12-31 $1.78B $0.36B 20.06%
2009-09-30 $1.78B $0.36B 20.18%
2009-06-30 $1.82B $0.34B 18.38%
2009-03-31 $1.89B $0.36B 19.17%
2008-12-31 $1.95B $0.39B 19.85%
2008-09-30 $1.97B $0.40B 20.55%
2008-06-30 $1.91B $0.40B 20.82%
2008-03-31 $1.81B $0.37B 20.45%
2007-12-31 $1.73B $0.35B 20.23%
2007-09-30 $1.66B $0.34B 20.24%
2007-06-30 $1.60B $0.33B 20.54%
2007-03-31 $1.54B $0.32B 20.56%
2006-12-31 $1.46B $0.31B 21.45%
2006-09-30 $1.31B $0.60B 45.88%
2006-06-30 $1.22B $0.23B 18.69%
2006-03-31 $1.14B $0.24B 21.37%
2005-12-31 $1.10B $0.25B 22.64%
Sector Industry Market Cap Revenue
Computer and Technology Computer Software $73.462B $5.085B
Dassault Systemes is a worldwide recognized leader in CAD/CAM/CAE and PDM II markets. The company's mission to provide solutions to enable customersto build their digital enterprise, by defining, simulating, managing and optimizing concurrently product, manufacturing process, and resources. In this virtual space, customers create innovative, high quality, safe and affordable products. The company delivers scaleable process and design-centric solutions on both Unix and Windows NT environments.
Stock Name Country Market Cap PE Ratio
Microsoft (MSFT) United States $2145.821B 35.75
Adobe (ADBE) United States $296.145B 63.82
Oracle (ORCL) United States $243.295B 20.85
Salesforce, Inc (CRM) United States $224.027B 69.32
SAP SE (SAP) Germany $176.561B 22.46
Intuit (INTU) United States $144.819B 69.01
Autodesk (ADSK) United States $70.653B 121.64
VMware (VMW) United States $64.406B 29.97
Synopsys (SNPS) United States $43.940B 55.92
Cadence Design Systems (CDNS) United States $40.867B 57.23
ANSYS (ANSS) United States $32.112B 66.03
SS&C Technologies Holdings (SSNC) United States $20.050B 17.94
PTC (PTC) United States $15.828B 55.51
Nuance Communications (NUAN) United States $15.705B 144.47
Open Text (OTEX) Canada $14.096B 15.97
Citrix Systems (CTXS) United States $12.510B 29.46
Pegasystems (PEGA) United States $10.397B 0.00
Manhattan Associates (MANH) United States $10.155B 107.86
Aspen Technology (AZPN) United States $9.948B 0.00
Trend Micro (TMICY) Japan $7.376B 28.80
Descartes Systems Group (DSGX) Canada $6.149B 106.85
MicroStrategy (MSTR) United States $6.101B 113.20
ACI Worldwide (ACIW) United States $4.052B 21.99
Blackbaud (BLKB) United States $3.482B 52.07
CommVault Systems (CVLT) United States $3.467B 89.99
Cornerstone OnDemand (CSOD) United States $3.174B 21.31
Verint Systems (VRNT) United States $2.774B 16.60
Progress Software (PRGS) United States $1.995B 15.40
PROS Holdings (PRO) United States $1.921B 0.00
Bottomline Technologies (EPAY) United States $1.832B 144.14
QAD (QADB) United States $1.782B 141.07
Avid Technology (AVID) United States $1.690B 47.94
Sapiens (SPNS) Israel $1.378B 25.21
Canaan (CAN) China $1.088B 0.00
OptimizeRx (OPRX) United States $0.965B 2763.50
Simulations Plus (SLP) United States $0.950B 82.79
Magic Software Enterprises (MGIC) Israel $0.856B 22.39
American Software (AMSWA) United States $0.720B 84.61
Icad Inc (ICAD) United States $0.366B 0.00
Smith Micro Software (SMSI) United States $0.303B 70.75
ServiceSource (SREV) United States $0.149B 0.00
Park City (PCYG) United States $0.109B 51.00
Neonode (NEON) Sweden $0.062B 0.00
NetSol Technologies (NTWK) United States $0.053B 21.14
BSQUARE (BSQR) United States $0.042B 0.00
GSE Systems (GVP) United States $0.029B 0.00